Regional Weather Roundup
Issued by NWS Cleveland, OH

Home | Current Version | Previous Version | Graphics & Text | Print | Product List | Glossary On
Versions: 1 2 3 4 5 6 7 8 9 10 11 12 13 14 15 16 17 18 19 20 21 22 23 24 25 26 27 28 29 30 31 32 33 34 35 36 37 38 39 40 41 42 43 44 45 46 47 48 49 50
000
ASUS41 KCLE 310902
RWRCLE
OHIO REGIONAL WEATHER ROUNDUP
NATIONAL WEATHER SERVICE CLEVELAND, OH
500 AM EDT FRI OCT 31 2014

NOTE: "FAIR" INDICATES FEW OR NO CLOUDS BELOW 12,000 FEET WITH NO
SIGNIFICANT WEATHER AND/OR OBSTRUCTIONS TO VISIBILITY.

OHZ001>008-015>018-024>027-034-035-043-044-311000-
   NORTHWEST OHIO

CITY           SKY/WX    TMP DP  RH WIND       PRES   REMARKS
DEFIANCE       CLOUDY    44  36  73 SW6       29.96F
FINDLAY        CLOUDY    44  36  73 S6        29.96F
TOLEDO EXPRESS CLOUDY    44  35  70 SW5       29.95F
TOLEDO EXEC    CLOUDY    45  36  70 SW7       29.96F
LIMA           NOT AVBL
$$

OHZ009>014-019>023-028>033-038-089-311000-
   NORTHEAST OHIO

CITY           SKY/WX    TMP DP  RH WIND       PRES   REMARKS
CLE-HOPKINS    CLOUDY    44  36  73 SW7       29.99F
CLE-LAKEFRONT  CLOUDY   N/A N/A N/A SW6       29.97
CUY CO. ARPT   NOT AVBL
LORAIN-ELYRIA  CLOUDY    43  37  79 SW5       29.97F
ASHTABULA      CLOUDY    41  38  89 S6        29.97F
AKRON-CANTON   CLOUDY    44  39  82 CALM      29.97F
WOOSTER        CLOUDY    44  37  76 SW3       29.97F
MANSFIELD      CLOUDY    40  34  79 SW5       29.96F
YOUNGSTOWN     CLOUDY    43  37  79 S5        29.97F
$$

OHZ042-051>053-060>062-070>072-077>081-311000-
  SOUTHWEST OHIO

CITY           SKY/WX    TMP DP  RH WIND       PRES   REMARKS
CINC-COVINGTON CLOUDY    44  41  89 CALM      29.99F
CINC-LUNKEN    LGT RAIN  43  41  93 CALM      30.01F
HAMILTON       CLOUDY    43  42  97 CALM      30.01F
DAYTON         CLOUDY    43  36  76 S5        29.99F
WRIGHT-PAT AFB MOCLDY    42  39  89 CALM      29.99F
DAYTON GENERAL CLOUDY    42  38  85 S3        29.98F
WILMINGTON     CLOUDY    41  36  82 SW5       29.99F
$$

OHZ036-037-039>041-045>050-054>059-063>069-073>076-082>088-311000-
  CENTRAL AND SOUTHEAST OHIO

CITY           SKY/WX    TMP DP  RH WIND       PRES   REMARKS
COLUMBUS       CLOUDY    43  34  70 S3        29.99F
OSU AIRPORT    CLOUDY    42  35  76 SW5       29.98F
BOLTON FIELD   LGT RAIN  41  37  86 MISG      29.99F
RICKENBACK AFB LGT RAIN  38  36  90 S3        29.99F
NEWARK         CLOUDY    45  34  65 CALM      29.98F
MARION         CLOUDY    42  35  76 SW5       29.98F
LANCASTER      CLOUDY    40  38  93 CALM      29.99F
ZANESVILLE     CLOUDY    42  37  82 W3        29.99F
NEW PHILLY     CLOUDY    45  40  82 CALM      29.99F
$$



USA.gov is the U.S. government's official web portal to all federal, state and local government web resources and services.